TimeEDT,TemperatureF,Dew PointF,Humidity,Sea Level PressureIn,VisibilityMPH,Wind Direction,Wind SpeedMPH,Gust SpeedMPH,PrecipitationIn,Events,Conditions,WindDirDegrees,DateUTC
12:53 AM,64.0,62.1,93,30.12,10.0,Calm,Calm,-,N/A,,Clear,0,2013-09-16 04:53:00
1:53 AM,63.0,61.0,93,30.13,8.0,Calm,Calm,-,N/A,,Clear,0,2013-09-16 05:53:00
2:13 AM,62.6,60.8,94,30.16,5.0,Calm,Calm,-,N/A,,Scattered Clouds,0,2013-09-16 06:13:00
2:21 AM,62.6,60.8,94,30.16,3.0,Calm,Calm,-,N/A,,Mostly Cloudy,0,2013-09-16 06:21:00
2:26 AM,62.6,60.8,94,30.16,1.8,Calm,Calm,-,N/A,,Mostly Cloudy,0,2013-09-16 06:26:00
2:35 AM,60.8,60.8,100,30.16,0.5,Calm,Calm,-,N/A,Fog,Fog,0,2013-09-16 06:35:00
2:43 AM,60.8,60.8,100,30.16,2.0,Calm,Calm,-,N/A,,Overcast,0,2013-09-16 06:43:00
2:50 AM,60.8,60.8,100,30.16,7.0,Calm,Calm,-,N/A,,Mostly Cloudy,0,2013-09-16 06:50:00
2:53 AM,61.0,60.1,97,30.13,7.0,Calm,Calm,-,N/A,,Mostly Cloudy,0,2013-09-16 06:53:00
3:41 AM,60.8,60.8,100,30.15,5.0,Calm,Calm,-,N/A,,Scattered Clouds,0,2013-09-16 07:41:00
3:53 AM,61.0,60.1,97,30.12,5.0,Calm,Calm,-,N/A,,Clear,0,2013-09-16 07:53:00
4:04 AM,60.8,59.0,94,30.15,4.0,Calm,Calm,-,N/A,,Scattered Clouds,0,2013-09-16 08:04:00
4:08 AM,60.8,60.8,100,30.15,1.5,Calm,Calm,-,N/A,,Mostly Cloudy,0,2013-09-16 08:08:00
4:17 AM,60.8,60.8,100,30.15,0.5,Calm,Calm,-,N/A,Fog,Fog,0,2013-09-16 08:17:00
4:53 AM,60.1,60.1,100,30.13,0.5,Calm,Calm,-,N/A,Fog,Fog,0,2013-09-16 08:53:00
5:53 AM,60.1,60.1,100,30.14,0.2,Calm,Calm,-,N/A,Fog,Fog,0,2013-09-16 09:53:00
6:53 AM,60.1,59.0,96,30.14,0.2,Calm,Calm,-,N/A,Fog,Fog,0,2013-09-16 10:53:00
7:53 AM,60.1,60.1,100,30.16,0.2,Calm,Calm,-,N/A,Fog,Fog,0,2013-09-16 11:53:00
8:53 AM,60.1,60.1,100,30.17,0.2,Calm,Calm,-,N/A,Fog,Fog,0,2013-09-16 12:53:00
9:43 AM,62.6,60.8,94,30.20,1.5,Calm,Calm,-,N/A,,Overcast,0,2013-09-16 13:43:00
9:53 AM,62.1,62.1,100,30.18,1.5,Calm,Calm,-,N/A,,Overcast,0,2013-09-16 13:53:00
10:02 AM,62.6,62.6,100,30.20,3.0,Calm,Calm,-,N/A,,Overcast,0,2013-09-16 14:02:00
10:48 AM,69.8,62.6,78,30.20,10.0,Calm,Calm,-,N/A,,Scattered Clouds,0,2013-09-16 14:48:00
10:53 AM,69.1,63.0,81,30.18,10.0,Calm,Calm,-,N/A,,Partly Cloudy,0,2013-09-16 14:53:00
11:53 AM,75.9,62.1,62,30.17,10.0,Calm,Calm,-,N/A,,Clear,0,2013-09-16 15:53:00
12:53 PM,79.0,60.1,52,30.16,10.0,Calm,Calm,-,N/A,,Clear,0,2013-09-16 16:53:00
1:53 PM,81.0,59.0,47,30.14,10.0,Variable,3.5,-,N/A,,Clear,0,2013-09-16 17:53:00
2:53 PM,82.9,59.0,44,30.14,10.0,Calm,Calm,-,N/A,,Scattered Clouds,0,2013-09-16 18:53:00
3:53 PM,80.1,61.0,52,30.13,10.0,Variable,4.6,-,N/A,,Mostly Cloudy,0,2013-09-16 19:53:00
4:53 PM,77.0,60.1,56,30.13,10.0,Variable,4.6,-,N/A,,Mostly Cloudy,0,2013-09-16 20:53:00
5:53 PM,75.9,61.0,60,30.14,10.0,Variable,6.9,-,N/A,,Overcast,0,2013-09-16 21:53:00
6:53 PM,73.0,60.1,64,30.14,10.0,Calm,Calm,-,N/A,,Overcast,0,2013-09-16 22:53:00
7:53 PM,72.0,57.9,61,30.15,10.0,Variable,3.5,-,N/A,,Overcast,0,2013-09-16 23:53:00
8:53 PM,71.1,57.9,63,30.16,10.0,ENE,3.5,-,N/A,,Overcast,60,2013-09-17 00:53:00
9:53 PM,70.0,59.0,68,30.17,10.0,ENE,4.6,-,N/A,,Overcast,70,2013-09-17 01:53:00
10:53 PM,68.0,60.1,76,30.18,10.0,Variable,4.6,-,N/A,,Overcast,0,2013-09-17 02:53:00
11:53 PM,66.9,60.1,79,30.18,10.0,Calm,Calm,-,N/A,,Partly Cloudy,0,2013-09-17 03:53:00